Starlink 31723

operational
NORAD ID: 59553 Int'l Des: 2024-074 Owner: SPXS Country: US Constellation: starlink
LEOCIRCULAR

About Starlink 31723

Description loading...

Live Position

Loading 3D Globe...

Upcoming Passes

Altitude History

Altitude vs Time

uPlot chart will show altitude changes over time

Two-Line Element Set

1 59553U 24074V 25350.96961503 -.00007431 00000-0 -26060-3 0 9992
2 59553 42.9968 90.6576 0000738 271.5711 88.5056 15.27603119 93360
Epoch: Dec 16, 2025 • Age: 5 hours

Current Status

Altitude 482.6 km
Velocity 7.63 km/s
Sub-Earth Point 2.08°N, 109.83°E
Launch Date Apr 18, 2024
Age 1.6 years
Type internet

Technical Details

Classification Payload
Mass 730.00 kg
Dry Mass 700.00 kg
Total Mass 730.00 kg
Length 0.30 m
Diameter 4.10 m
Span 29.00 m
Shape Box + pan
Manufacturer SPXS
Bus Type Starlink V2M
Phase Status In Orbit
Owner/State SPXS/US

Large Constellations

Loading constellations...